When you browse on this site, cookies collect data to enhance your experience and personalize the content and advertising you see.
Visit our Privacy Policy to learn more. By continuing to use the site, you agree to this use of cookies and data.
  • In Austria
  • List of Countries
  • For 7 days
  • Water Temperature
  • Satellite Maps
  • Weather Map
  • News
  • Weather Widgets
  • user-avatar
    Login

    Hourly Weather Tibissa

    Today, 20 July, Saturday

    Time Temperature Precipitation Wind Pressure Humidity
    00:00 +26°C° 0 mm 3 mps 687 mmHg 40%
    01:00 +25°C° 0 mm 3 mps 687 mmHg 46%
    02:00 +25°C° 0 mm 3 mps 687 mmHg 49%
    03:00 +24°C° 0 mm 2 mps 687 mmHg 52%
    04:00 +24°C° 0 mm 2 mps 686 mmHg 56%
    05:00 +24°C° 0 mm 2 mps 687 mmHg 53%
    06:00 +25°C° 0 mm 2 mps 687 mmHg 51%
    07:00 +26°C° 0 mm 3 mps 687 mmHg 47%
    08:00 +28°C° 0 mm 4 mps 688 mmHg 41%
    09:00 +30°C° 0 mm 5 mps 688 mmHg 36%
    10:00 +32°C° 0 mm 6 mps 689 mmHg 30%
    11:00 +34°C° 0 mm 6 mps 689 mmHg 28%
    12:00 +35°C° 0 mm 6 mps 689 mmHg 26%
    13:00 +36°C° 0 mm 6 mps 689 mmHg 24%
    14:00 +36°C° 0 mm 6 mps 689 mmHg 24%
    15:00 +36°C° 0 mm 6 mps 688 mmHg 24%
    16:00 +36°C° 0 mm 5 mps 688 mmHg 24%
    17:00 +35°C° 0.1 mm 5 mps 688 mmHg 25%
    18:00 +34°C° 0.1 mm 5 mps 688 mmHg 27%
    19:00 +33°C° 0.1 mm 5 mps 688 mmHg 29%
    20:00 +32°C° 0 mm 4 mps 688 mmHg 32%
    21:00 +30°C° 0 mm 3 mps 688 mmHg 36%
    22:00 +29°C° 0 mm 2 mps 688 mmHg 39%
    23:00 +28°C° 0 mm 1 mps 688 mmHg 41%

    Tomorrow, 21 July, Sunday

    Time Temperature Precipitation Wind Pressure Humidity
    00:00 +28°C° 0 mm 1 mps 688 mmHg 43%
    01:00 +25°C° 0 mm 0 mps 688 mmHg 45%
    02:00 +26°C° 0 mm 1 mps 688 mmHg 46%
    03:00 +26°C° 0 mm 1 mps 687 mmHg 47%
    04:00 +26°C° 0 mm 1 mps 687 mmHg 48%
    05:00 +26°C° 0 mm 1 mps 688 mmHg 46%
    06:00 +27°C° 0 mm 1 mps 688 mmHg 43%
    07:00 +28°C° 0 mm 1 mps 688 mmHg 41%
    08:00 +30°C° 0 mm 2 mps 689 mmHg 36%
    09:00 +32°C° 0 mm 2 mps 689 mmHg 32%
    10:00 +34°C° 0 mm 3 mps 690 mmHg 27%
    11:00 +35°C° 0 mm 3 mps 690 mmHg 25%
    12:00 +36°C° 0 mm 4 mps 690 mmHg 23%
    13:00 +37°C° 0 mm 4 mps 690 mmHg 21%
    14:00 +37°C° 0 mm 4 mps 689 mmHg 21%
    15:00 +37°C° 0 mm 4 mps 689 mmHg 21%
    16:00 +37°C° 0 mm 4 mps 689 mmHg 21%
    17:00 +36°C° 0 mm 4 mps 689 mmHg 22%
    18:00 +35°C° 0 mm 5 mps 689 mmHg 23%
    19:00 +35°C° 0 mm 5 mps 689 mmHg 23%
    20:00 +33°C° 0 mm 5 mps 689 mmHg 30%
    21:00 +30°C° 0 mm 4 mps 689 mmHg 36%
    22:00 +28°C° 0 mm 4 mps 689 mmHg 43%
    23:00 +27°C° 0 mm 3 mps 689 mmHg 46%

    Day after tomorrow, 22 July, Monday

    Time Temperature Precipitation Wind Pressure Humidity
    00:00 +26°C° 0 mm 2 mps 689 mmHg 48%
    01:00 +25°C° 0 mm 1 mps 689 mmHg 51%
    02:00 +24°C° 0 mm 1 mps 689 mmHg 52%
    03:00 +24°C° 0 mm 1 mps 688 mmHg 53%
    04:00 +23°C° 0 mm 1 mps 688 mmHg 54%
    05:00 +24°C° 0 mm 1 mps 689 mmHg 51%
    06:00 +24°C° 0 mm 1 mps 689 mmHg 47%
    07:00 +25°C° 0 mm 1 mps 689 mmHg 44%
    08:00 +26°C° 0 mm 1 mps 690 mmHg 40%
    09:00 +28°C° 0 mm 1 mps 690 mmHg 36%
    10:00 +29°C° 0 mm 2 mps 691 mmHg 32%
    11:00 +30°C° 0 mm 2 mps 691 mmHg 29%
    12:00 +33°C° 0 mm 3 mps 690 mmHg 27%
    13:00 +34°C° 0 mm 3 mps 690 mmHg 24%
    14:00 +34°C° 0 mm 3 mps 690 mmHg 23%
    15:00 +35°C° 0 mm 4 mps 690 mmHg 21%
    16:00 +35°C° 0 mm 4 mps 689 mmHg 19%
    17:00 +35°C° 0 mm 4 mps 689 mmHg 19%
    18:00 +34°C° 0 mm 4 mps 689 mmHg 19%
    19:00 +33°C° 0 mm 4 mps 689 mmHg 19%
    20:00 +32°C° 0 mm 4 mps 689 mmHg 23%
    21:00 +29°C° 0 mm 4 mps 689 mmHg 27%
    22:00 +27°C° 0 mm 5 mps 689 mmHg 31%
    23:00 +26°C° 0 mm 4 mps 689 mmHg 34%

    23 July, Tuesday

    Time Temperature Precipitation Wind Pressure Humidity
    00:00 +25°C° 0 mm 3 mps 689 mmHg 37%
    01:00 +24°C° 0 mm 2 mps 688 mmHg 39%
    02:00 +24°C° 0 mm 1 mps 688 mmHg 41%
    03:00 +23°C° 0 mm 1 mps 688 mmHg 42%
    04:00 +23°C° 0 mm 1 mps 687 mmHg 44%
    05:00 +21°C° 0 mm 0 mps 688 mmHg 42%
    06:00 +22°C° 0 mm 0 mps 688 mmHg 39%
    07:00 +23°C° 0 mm 0 mps 688 mmHg 37%
    08:00 +25°C° 0 mm 0 mps 688 mmHg 34%
    09:00 +28°C° 0 mm 1 mps 689 mmHg 30%
    10:00 +29°C° 0 mm 1 mps 689 mmHg 27%
    11:00 +31°C° 0 mm 1 mps 689 mmHg 24%
    12:00 +32°C° 0 mm 2 mps 689 mmHg 20%
    13:00 +34°C° 0 mm 2 mps 689 mmHg 17%
    14:00 +34°C° 0 mm 2 mps 688 mmHg 16%
    15:00 +35°C° 0 mm 2 mps 688 mmHg 15%
    16:00 +36°C° 0 mm 3 mps 688 mmHg 14%
    17:00 +35°C° 0 mm 3 mps 688 mmHg 15%
    18:00 +34°C° 0 mm 3 mps 688 mmHg 15%
    19:00 +34°C° 0 mm 4 mps 687 mmHg 16%
    20:00 +32°C° 0 mm 4 mps 688 mmHg 19%
    21:00 +30°C° 0 mm 4 mps 688 mmHg 21%
    22:00 +28°C° 0 mm 4 mps 688 mmHg 24%
    23:00 +28°C° 0 mm 3 mps 687 mmHg 24%

    24 July, Wednesday

    Time Temperature Precipitation Wind Pressure Humidity
    00:00 +27°C° 0 mm 3 mps 687 mmHg 24%
    01:00 +26°C° 0 mm 2 mps 687 mmHg 24%
    02:00 +25°C° 0 mm 2 mps 687 mmHg 25%
    03:00 +25°C° 0 mm 2 mps 686 mmHg 26%
    04:00 +24°C° 0 mm 2 mps 686 mmHg 26%
    05:00 +25°C° 0 mm 2 mps 686 mmHg 25%
    06:00 +26°C° 0 mm 2 mps 687 mmHg 24%
    07:00 +26°C° 0 mm 2 mps 687 mmHg 23%
    08:00 +28°C° 0 mm 3 mps 687 mmHg 22%
    09:00 +30°C° 0 mm 3 mps 688 mmHg 21%
    10:00 +32°C° 0 mm 4 mps 688 mmHg 20%
    11:00 +33°C° 0 mm 3 mps 688 mmHg 19%
    12:00 +35°C° 0 mm 3 mps 688 mmHg 17%
    13:00 +36°C° 0 mm 3 mps 688 mmHg 16%
    14:00 +36°C° 0 mm 3 mps 687 mmHg 16%
    15:00 +36°C° 0 mm 3 mps 687 mmHg 16%
    16:00 +37°C° 0 mm 3 mps 686 mmHg 15%
    17:00 +36°C° 0 mm 3 mps 686 mmHg 17%
    18:00 +35°C° 0 mm 4 mps 686 mmHg 18%
    19:00 +34°C° 0 mm 4 mps 686 mmHg 19%
    20:00 +33°C° 0 mm 3 mps 686 mmHg 22%
    21:00 +30°C° 0 mm 3 mps 686 mmHg 25%
    22:00 +29°C° 0 mm 3 mps 686 mmHg 28%
    23:00 +28°C° 0 mm 3 mps 686 mmHg 29%

    25 July, Thursday

    Time Temperature Precipitation Wind Pressure Humidity
    00:00 +28°C° 0 mm 3 mps 686 mmHg 30%
    01:00 +27°C° 0 mm 3 mps 686 mmHg 31%
    02:00 +27°C° 0 mm 3 mps 685 mmHg 32%
    03:00 +26°C° 0 mm 3 mps 685 mmHg 32%
    04:00 +26°C° 0 mm 2 mps 685 mmHg 33%
    05:00 +26°C° 0 mm 3 mps 685 mmHg 32%
    06:00 +27°C° 0 mm 3 mps 686 mmHg 31%
    07:00 +27°C° 0 mm 3 mps 686 mmHg 29%
    08:00 +29°C° 0 mm 4 mps 687 mmHg 26%
    09:00 +32°C° 0 mm 4 mps 687 mmHg 23%
    10:00 +34°C° 0 mm 4 mps 687 mmHg 20%
    11:00 +35°C° 0 mm 4 mps 687 mmHg 19%
    12:00 +36°C° 0 mm 4 mps 687 mmHg 17%
    13:00 +37°C° 0 mm 4 mps 687 mmHg 15%
    14:00 +37°C° 0 mm 4 mps 687 mmHg 15%
    15:00 +38°C° 0 mm 4 mps 686 mmHg 14%
    16:00 +38°C° 0 mm 4 mps 686 mmHg 13%
    17:00 +39°C° 0 mm 5 mps 686 mmHg 14%
    18:00 +37°C° 0 mm 5 mps 686 mmHg 15%
    19:00 +36°C° 0 mm 5 mps 686 mmHg 17%
    20:00 +34°C° 0 mm 4 mps 686 mmHg 21%
    21:00 +31°C° 0 mm 3 mps 686 mmHg 25%
    22:00 +30°C° 0 mm 3 mps 686 mmHg 29%
    23:00 +29°C° 0 mm 2 mps 685 mmHg 30%
    Show more